Lapse_Rate
6.6 6.3 6.1 6.0 6.0 5.9 5.9 5.5 5.6 6.0 5.9 5.5 5.9 5.6 5.6 6.1 6.1 6.1 6.2 6.2 6.2 6.1 5.9 5.5 5.5 5.5 5.6 5.6 5.5 5.0 5.0 5.1 5.0 5.0 4.5 4.1 4.1 4.0 4.2 4.4 4.7 4.5 5.2 5.2 5.1 5.2 5.6
6.6 6.5 6.4 6.0 5.8 5.9 5.8 5.6 5.8 5.6 5.8 5.7 5.5 5.6 5.3 5.5 6.0 6.0 6.1 6.1 6.1 6.1 6.0 5.7 5.5 5.6 5.7 5.6 5.0 5.4 5.2 5.0 4.8 4.6 4.4 4.1 4.5 4.0 4.0 4.3 4.3 4.4 4.7 5.2 5.2 5.1 5.3
6.3 6.2 6.2 6.1 5.9 5.6 5.6 5.8 5.7 5.6 5.6 5.6 5.7 5.6 5.5 5.1 5.7 5.9 6.0 6.0 6.0 6.1 5.9 5.7 5.5 5.6 5.7 4.9 5.6 5.6 5.3 5.2 4.9 4.7 4.3 4.1 3.8 3.9 4.0 4.5 3.8 4.2 4.4 4.9 5.2 5.8 5.5
6.1 5.9 5.8 5.7 5.9 5.8 5.5 5.3 5.5 5.6 5.8 5.5 5.5 5.6 5.4 5.3 5.1 5.8 5.7 5.8 5.9 5.9 5.8 5.6 5.6 5.6 5.6 5.4 5.5 5.4 5.3 5.2 4.9 4.7 4.5 4.3 4.0 3.9 3.7 4.0 3.7 3.5 3.5 4.5 5.3 5.3 5.4
5.4 5.3 5.2 5.1 5.0 5.0 5.1 5.2 5.0 5.1 5.3 5.7 5.3 5.4 5.6 5.3 5.3 5.1 5.4 5.5 5.7 5.7 5.7 5.5 5.4 5.8 5.8 5.7 5.6 5.6 5.6 5.2 4.9 4.8 4.5 4.1 4.2 4.1 3.7 3.2 3.3 3.4 3.4 3.8 4.2 4.8 4.9
5.1 5.0 4.7 4.6 4.6 4.6 4.5 4.5 4.6 4.6 4.9 5.3 5.5 5.5 5.4 5.3 5.3 5.1 4.9 5.2 5.3 5.6 5.5 5.3 5.7 5.7 5.6 5.4 5.5 5.5 5.4 5.3 5.1 4.8 4.3 4.1 3.7 3.2 3.0 3.5 3.4 3.6 3.5 3.4 3.4 4.3 4.7
4.8 4.4 4.3 4.2 4.3 4.2 4.0 3.9 3.9 4.1 4.5 4.9 5.3 5.5 5.3 5.4 5.1 5.0 4.9 4.8 5.0 5.1 5.5 5.6 5.6 5.6 5.7 5.6 5.4 5.4 5.4 5.2 5.0 4.7 4.6 4.1 3.6 3.2 4.3 4.2 3.7 3.5 3.4 3.3 3.5 4.1 4.3
4.6 4.4 3.5 2.5 2.0 3.1 3.4 3.5 3.5 3.2 3.6 4.8 5.0 5.3 4.9 5.4 5.3 5.0 4.8 4.9 5.3 5.2 5.3 5.3 5.4 5.5 5.8 5.6 5.3 5.3 5.3 5.0 4.8 4.6 4.4 3.8 4.1 4.4 4.1 3.5 3.6 3.5 3.5 3.4 3.7 4.7 4.5
4.8 4.4 3.5 3.0 2.5 2.9 3.7 4.5 4.5 4.6 4.4 4.1 4.9 4.9 5.1 6.3 6.1 5.1 5.1 5.0 5.2 4.8 4.9 5.3 5.3 5.6 5.5 5.4 5.2 5.3 4.9 4.5 4.4 4.2 4.3 4.3 4.4 4.2 4.2 4.3 3.9 3.8 3.8 4.1 4.3 4.8 4.6
4.7 4.3 3.4 3.0 3.7 4.5 5.2 5.2 5.4 5.6 5.9 5.1 4.5 5.2 5.1 6.3 6.4 5.6 5.1 4.8 4.7 4.6 4.9 5.4 5.8 5.6 5.7 5.1 4.6 5.3 4.7 4.2 3.9 4.1 4.1 3.9 4.0 4.0 4.0 3.7 4.1 4.0 4.3 4.5 4.4 3.9 3.5
4.8 4.1 3.5 3.8 4.7 5.1 5.4 5.8 6.1 6.1 5.9 5.8 5.0 5.6 5.4 6.5 6.6 6.2 6.1 5.5 4.6 4.8 3.7 5.4 5.2 5.0 5.1 5.1 4.9 5.1 4.7 3.8 3.7 4.0 4.2 4.4 4.3 4.5 4.0 4.4 4.4 3.8 4.2 4.3 4.1 4.1 3.9
4.6 3.9 4.0 4.7 5.1 5.3 5.8 6.7 7.2 7.1 6.5 6.3 5.8 5.6 5.8 6.3 6.1 6.5 6.3 5.8 5.1 5.1 4.1 5.2 4.7 4.5 4.5 4.5 4.8 4.9 5.0 4.2 4.3 4.2 4.1 4.2 4.0 3.8 4.1 4.7 4.6 4.3 4.2 4.4 4.7 4.6 4.1
4.2 4.1 4.5 5.3 5.4 6.3 6.9 7.3 7.3 7.2 6.9 6.6 6.2 5.8 5.8 5.9 6.2 6.6 6.0 5.7 5.6 4.9 5.5 5.2 4.9 4.8 4.4 4.5 4.6 4.7 4.6 4.5 4.5 4.3 4.2 4.1 4.1 4.2 4.3 4.7 5.0 5.0 5.3 5.4 5.5 5.2 4.2
4.1 4.3 4.7 5.4 5.8 6.9 7.0 7.3 7.1 7.6 7.4 7.1 6.7 6.2 5.8 5.5 6.1 6.2 6.4 6.1 5.7 5.6 5.9 5.6 5.6 5.1 4.7 4.9 4.7 4.6 4.6 4.3 4.2 4.3 4.2 4.1 4.3 5.2 5.6 6.0 6.2 6.1 6.5 6.4 6.5 6.0 5.0
4.1 4.3 4.9 5.4 6.1 6.8 7.2 7.4 7.1 7.6 7.5 7.2 6.4 6.5 5.8 6.1 5.9 6.2 6.6 5.7 6.2 6.5 6.5 6.6 5.8 5.6 5.0 4.6 4.4 4.3 4.4 4.2 4.3 4.4 4.4 4.6 4.8 5.3 5.7 6.1 6.1 5.9 6.3 7.2 6.6 6.5 6.6
3.9 4.3 4.9 5.3 6.2 6.6 7.1 7.4 6.8 7.1 7.5 6.6 6.3 5.9 6.2 6.1 6.0 6.2 6.3 6.2 6.4 6.8 6.6 6.4 6.7 6.1 5.1 4.8 5.0 4.5 4.3 5.3 5.1 5.3 4.7 4.9 4.7 5.1 5.3 5.5 5.6 6.2 6.5 6.5 6.6 6.8 6.9
4.1 4.2 4.8 5.0 5.5 6.5 6.9 7.0 6.8 6.6 7.1 6.7 6.0 5.8 6.5 6.1 6.1 6.1 5.8 6.2 6.5 7.1 6.9 6.7 6.5 6.4 5.9 5.5 5.1 4.8 5.1 5.7 5.5 5.5 5.0 4.6 4.3 4.7 4.9 5.5 6.1 5.8 5.9 6.5 6.8 6.8 5.9
3.9 4.0 4.6 4.8 5.1 6.3 7.0 7.1 6.7 6.8 7.2 6.7 6.1 5.7 5.7 5.9 5.9 5.9 5.5 5.9 6.9 6.8 6.6 6.6 6.4 6.2 6.0 5.6 4.8 4.5 5.1 5.4 5.4 5.3 5.3 5.1 4.6 4.6 5.1 6.0 6.0 5.9 6.3 6.3 6.5 6.3 6.9
3.6 3.8 4.5 4.7 4.8 5.6 6.8 6.9 7.2 6.7 6.9 6.6 5.8 5.4 6.1 6.1 5.5 5.3 5.9 6.3 6.6 6.5 6.6 6.5 6.2 6.1 5.9 5.3 4.9 5.1 5.1 5.2 5.0 5.2 5.3 5.3 4.4 4.5 5.1 5.4 5.2 5.6 5.6 5.7 6.1 6.7 6.3
3.3 3.5 4.4 4.7 4.8 5.4 6.7 6.8 7.1 6.8 6.5 5.9 6.2 6.4 6.4 6.2 6.0 6.2 6.1 6.3 6.4 6.5 6.6 6.4 6.1 5.8 5.5 5.2 5.1 5.1 4.9 4.8 5.0 5.3 4.9 4.5 4.7 5.3 5.4 6.2 5.7 5.4 5.4 5.7 5.8 6.2 6.4
3.2 3.5 4.3 4.7 4.9 5.3 6.5 6.7 7.0 6.5 6.7 6.4 6.6 6.3 6.3 6.0 5.8 6.0 6.3 6.7 6.5 6.3 6.5 6.2 5.9 6.0 5.6 5.3 5.3 5.0 5.0 4.8 5.0 4.8 5.0 4.7 5.0 5.3 5.4 5.3 5.1 5.1 5.2 5.5 5.5 5.8 5.8
3.2 3.5 4.2 4.6 5.2 5.3 6.1 6.8 7.1 6.5 6.7 6.4 6.6 6.2 5.7 6.3 6.1 6.1 6.4 6.6 6.3 6.3 6.3 6.1 6.1 5.9 5.8 5.4 5.1 4.9 4.9 5.3 5.1 4.8 4.9 5.0 5.1 5.2 5.1 5.0 4.9 4.8 4.8 4.9 5.0 5.4 5.3
3.0 3.5 4.1 4.5 4.8 5.3 5.6 6.4 6.4 6.4 6.2 6.2 6.5 6.3 6.3 6.3 5.9 6.1 6.4 6.6 6.6 6.3 6.3 6.1 6.0 5.9 5.7 5.4 4.9 4.8 5.0 4.8 5.1 5.0 4.9 5.1 5.0 4.8 5.1 5.1 5.2 5.2 5.2 5.2 4.6 4.9 5.1
2.8 3.3 3.9 4.3 4.5 4.8 4.9 5.5 5.9 5.6 5.9 6.2 6.2 6.4 6.3 6.4 6.4 6.5 6.7 6.5 6.5 6.8 6.2 6.1 5.9 5.7 5.7 5.4 4.8 4.9 4.9 4.9 5.4 5.4 5.0 5.2 5.1 4.9 5.2 5.6 5.7 5.2 4.9 4.6 4.7 4.7 5.1
2.9 3.1 3.7 3.6 4.0 4.1 4.5 5.1 5.5 5.5 6.2 6.1 6.5 6.5 6.5 6.6 6.5 6.4 6.3 6.4 6.4 6.3 6.1 6.0 5.8 5.8 5.6 5.5 5.0 5.1 5.1 5.3 5.7 5.7 5.5 5.5 5.4 5.0 5.5 5.4 5.7 5.8 5.5 5.2 5.4 5.1 5.4
2.9 2.9 3.5 3.3 3.4 3.8 4.5 4.8 5.4 5.6 6.0 6.2 6.4 6.5 6.4 6.5 6.6 6.5 6.5 6.3 6.4 6.1 6.0 6.1 5.9 5.6 5.5 5.5 4.9 5.0 5.2 5.4 5.5 5.4 5.3 5.3 5.3 5.0 5.3 5.3 5.4 6.3 6.1 6.2 6.3 6.4 6.6
3.0 3.0 3.4 3.5 3.4 3.7 4.3 4.9 5.2 5.7 5.8 6.0 6.2 6.6 6.3 6.3 6.5 6.5 6.5 6.4 6.3 5.9 6.0 6.0 5.8 5.7 5.6 5.2 5.0 5.3 5.2 5.4 5.4 5.4 5.5 5.2 5.2 5.1 5.1 5.4 6.2 6.3 6.3 6.5 6.5 6.4 6.7
3.1 3.1 3.5 3.5 3.6 3.9 4.2 4.8 5.2 5.5 5.8 6.1 6.6 6.1 6.6 6.4 6.4 6.5 6.6 6.4 6.1 6.1 6.0 5.9 5.6 5.6 5.5 5.0 4.9 5.2 5.5 5.3 5.2 5.4 5.6 5.5 5.6 5.5 5.2 5.2 5.6 6.4 6.6 6.6 6.6 6.7 6.8
3.1 3.3 3.7 3.7 3.4 3.8 4.3 4.7 5.1 5.5 5.3 6.4 6.3 6.6 6.5 6.3 6.4 6.3 6.4 6.3 6.0 6.0 5.9 5.7 5.6 5.7 5.4 5.1 5.0 5.2 5.6 5.3 5.5 5.7 6.0 5.9 5.8 5.7 5.7 6.1 6.4 6.4 6.9 7.1 7.1 7.3 7.4
Wind_Speed
27 28 28 28 28 28 30 30 28 30 25 22 19 17 19 16 13 12 10 8 6 4 2 4 3 3 1 2 7 3 7 10 3 11 8 7 3 4 4 3 1 4 4 4 4 7 7
24 26 28 28 29 29 29 29 30 27 30 25 22 19 20 19 16 14 11 9 6 4 3 2 2 2 2 3 3 4 3 4 5 6 5 6 5 5 2 3 3 2 3 5 5 5 5
26 26 26 27 29 31 30 30 29 29 27 26 26 22 19 21 18 15 13 10 8 5 4 3 0 2 1 10 2 3 6 2 1 3 5 4 4 3 0 2 2 3 5 6 6 6 7
28 30 30 29 28 28 31 31 31 29 29 27 25 25 19 22 20 17 15 12 10 7 4 3 2 2 6 3 3 2 2 2 1 2 2 3 6 4 2 4 2 2 1 3 4 5 6
29 30 32 31 32 29 28 30 30 30 30 29 26 24 24 21 23 20 16 12 9 6 4 4 2 2 7 4 2 4 5 4 3 3 2 3 4 3 2 1 4 4 8 5 6 2 4
28 30 31 31 32 33 32 32 30 30 30 27 29 22 26 20 24 22 17 10 7 4 1 2 2 1 3 2 2 3 3 6 3 4 3 3 2 3 4 5 6 4 7 10 8 3 4
27 25 26 32 31 33 29 31 31 29 30 27 26 22 22 21 24 23 15 7 4 1 3 6 4 3 1 1 2 2 3 5 4 4 5 2 3 7 10 8 10 4 3 9 4 7 7
26 29 32 29 32 32 31 32 31 31 28 26 27 23 18 23 23 28 11 6 6 5 2 12 9 6 2 2 1 2 6 5 4 5 4 1 10 8 5 4 5 8 13 19 13 12 10
29 31 32 32 33 32 31 31 31 31 29 26 23 26 17 27 21 18 16 5 7 7 2 3 6 7 3 5 4 4 8 4 3 5 6 7 3 7 9 6 5 6 11 8 14 9 12
30 32 30 31 32 33 33 31 31 32 27 28 25 26 23 24 12 14 12 10 7 5 4 4 4 5 5 6 5 8 9 5 2 9 5 8 9 9 5 5 8 13 8 14 13 6 7
29 31 31 31 34 34 34 33 28 31 30 32 32 28 26 16 6 13 12 11 5 5 1 3 5 0 6 9 2 2 3 3 7 7 5 5 4 7 14 12 7 4 6 8 10 8 6
32 32 31 32 32 33 34 32 31 33 36 40 33 27 19 10 4 12 23 14 4 5 6 6 4 6 6 4 1 4 5 3 3 9 12 11 3 3 6 7 14 3 4 4 3 4 11
30 33 32 33 33 34 35 32 33 33 43 29 16 18 10 2 4 21 17 8 4 4 1 6 5 5 6 6 4 4 6 8 5 5 7 4 12 6 3 4 7 9 3 3 5 6 7
30 31 31 31 32 31 33 32 33 34 33 21 4 8 6 5 19 21 11 4 4 5 5 7 6 8 6 7 4 4 4 7 10 6 1 3 5 12 12 16 7 17 10 5 5 4 4
31 31 31 30 32 33 32 34 34 35 30 26 13 1 3 5 20 16 11 3 7 7 7 8 11 6 6 6 3 7 9 5 7 15 6 4 6 2 5 6 9 5 11 14 5 3 3
31 30 31 30 29 31 31 34 34 32 32 20 3 2 3 11 19 13 8 5 3 4 7 5 5 5 6 7 7 7 6 4 6 12 10 1 6 3 3 3 10 8 1 4 6 5 5
31 32 30 29 29 30 30 33 33 33 30 32 3 3 6 11 10 7 5 3 3 3 5 5 4 5 4 5 9 5 4 4 6 5 14 6 4 1 5 9 11 8 9 6 3 4 4
33 32 30 29 27 29 29 32 33 34 28 15 2 2 9 11 6 3 5 6 4 5 2 2 3 4 6 8 6 8 8 6 6 9 10 9 3 6 15 10 16 18 13 17 7 6 4
30 31 29 28 27 28 28 31 34 34 25 5 3 1 11 15 4 3 3 3 4 4 4 3 3 3 6 6 5 8 3 6 8 9 11 9 5 4 4 3 8 10 18 20 19 8 14
30 31 30 28 27 26 27 29 33 36 34 9 2 3 4 2 1 11 7 5 4 1 4 3 2 4 5 6 9 3 5 5 13 11 10 12 5 8 12 10 3 6 16 18 17 10 14
29 30 30 28 25 25 27 29 32 34 35 5 1 1 2 5 3 9 5 8 9 5 2 7 5 12 6 5 6 7 8 4 4 11 7 7 7 12 21 23 18 12 12 20 19 23 12
27 30 29 27 24 26 26 27 31 32 36 1 1 2 3 8 10 9 5 7 11 7 8 5 8 7 11 6 7 8 5 4 5 4 8 5 5 3 17 19 18 24 24 18 21 21 21
27 29 28 25 24 25 25 24 27 29 19 3 3 2 2 11 9 8 7 7 12 9 8 8 12 10 10 15 16 14 2 5 3 2 5 3 3 3 9 6 12 5 10 18 14 11 17
27 28 27 24 22 24 25 24 27 28 22 4 2 3 2 4 9 9 11 8 8 13 6 3 11 6 2 2 1 2 4 9 14 15 12 5 3 3 6 9 4 4 4 5 13 9 16
27 27 27 21 21 22 24 24 26 29 26 6 2 2 1 3 5 8 8 8 6 5 9 11 6 3 2 3 1 3 2 3 7 10 12 13 3 3 4 6 6 4 1 3 5 6 12
28 27 25 21 20 20 22 22 24 29 26 9 4 2 2 2 7 5 9 6 3 3 4 4 0 3 3 2 3 3 3 3 3 2 2 9 10 2 4 4 4 5 5 2 3 6 11
27 26 24 21 19 20 21 22 22 26 25 10 3 3 1 2 1 3 3 4 4 3 1 1 2 3 10 5 3 2 3 3 2 3 3 2 3 4 4 3 7 5 8 3 4 4 3
26 25 22 21 20 20 20 22 21 25 23 12 5 4 2 2 2 1 3 4 3 3 3 2 2 3 3 4 2 2 3 4 2 3 4 6 3 3 2 2 4 4 4 2 3 3 3
24 24 23 19 18 18 20 21 19 23 21 18 3 5 2 1 2 1 2 1 4 7 4 3 1 2 3 3 3 3 2 1 2 3 2 3 5 3 6 5 4 3 3 2 2 2 3
Wind_Direction
356 350 349 345 341 340 338 336 332 334 311 280 272 245 227 221 221 231 235 243 250 249 278 304 335 5 28 206 252 309 3 7 1 149 167 190 141 151 196 220 279 206 233 261 297 301 275
354 351 347 344 340 337 336 336 330 326 336 312 280 267 225 213 210 218 220 228 233 229 247 291 321 106 104 234 253 344 287 12 34 128 156 160 180 193 234 244 186 295 274 263 272 260 279
349 349 343 340 339 338 333 330 327 325 322 322 301 271 240 214 204 206 211 214 214 211 224 247 163 90 209 244 80 360 12 89 13 121 149 163 192 150 114 234 277 271 306 298 219 221 245
350 347 345 340 338 336 331 328 327 325 320 318 323 282 262 219 198 199 204 206 208 180 200 214 138 78 244 245 311 263 141 310 82 199 105 149 166 183 179 307 321 291 256 304 316 227 235
347 345 346 338 337 331 328 327 321 321 321 317 318 319 277 241 199 190 192 198 174 150 209 205 102 140 262 312 188 242 164 169 114 116 128 145 138 180 161 174 285 184 261 256 316 273 260
344 345 340 337 335 332 329 325 324 318 313 317 311 315 315 259 207 184 179 156 130 101 4 233 326 344 258 244 181 130 200 143 120 119 107 123 163 180 162 184 225 242 239 257 258 285 353
342 339 338 336 333 329 327 324 321 318 314 311 310 312 313 277 214 175 141 119 98 341 228 209 195 222 296 298 127 92 149 100 87 79 171 159 178 208 204 220 243 258 267 267 268 293 316
339 342 334 340 331 330 326 325 325 320 318 309 311 311 307 298 226 164 150 170 177 160 212 235 254 265 273 38 46 105 135 124 131 172 123 87 240 222 216 203 228 248 265 266 275 251 261
340 333 337 337 330 329 322 324 322 320 318 317 320 319 299 309 227 153 172 186 137 134 93 269 210 227 179 157 238 208 162 133 144 147 190 204 204 205 186 201 213 218 234 252 256 294 270
334 331 333 330 327 326 326 323 322 327 322 314 307 313 307 306 213 155 168 157 148 116 59 244 202 244 162 155 277 192 171 145 160 191 188 247 242 243 199 204 192 255 199 240 252 252 255
336 333 335 328 326 325 325 320 320 325 322 316 302 299 295 272 158 165 145 147 123 59 11 157 147 63 157 162 153 33 161 180 177 187 160 225 195 209 226 223 174 254 179 213 229 236 274
331 333 332 328 326 326 325 323 331 327 316 305 287 277 276 292 247 137 134 131 98 61 244 165 127 174 152 200 176 124 171 219 2 224 228 242 177 197 208 228 213 197 236 266 274 230 248
333 330 333 326 328 328 325 332 333 327 312 306 280 249 234 264 189 141 131 148 101 186 57 168 168 166 193 165 207 172 173 190 192 199 223 228 233 213 208 202 189 195 166 218 225 211 250
333 332 332 327 327 329 329 328 327 331 332 325 323 225 201 198 158 144 146 112 131 170 185 140 133 143 172 178 213 210 202 220 222 207 284 253 295 196 194 207 180 199 201 222 236 230 256
335 332 332 329 329 331 332 328 334 341 339 336 319 20 158 151 173 147 150 171 184 183 164 144 145 159 195 184 177 196 219 227 224 195 204 219 254 359 204 204 175 167 213 221 264 199 241
334 333 333 332 333 333 332 329 335 342 341 331 313 209 127 191 152 163 163 175 140 163 124 141 136 186 167 165 180 188 190 221 219 191 188 292 285 199 196 169 260 210 250 177 201 229 234
337 335 335 332 333 332 331 331 335 343 342 325 196 164 143 163 141 158 190 116 158 166 119 139 165 151 159 164 195 193 231 271 201 186 175 182 215 318 143 207 200 198 223 218 260 199 201
336 335 334 333 331 330 332 335 336 341 347 331 126 125 164 159 148 185 149 164 134 144 71 108 110 110 171 175 202 208 225 229 160 142 181 199 236 232 235 218 207 215 221 214 216 202 231
335 335 333 333 331 333 331 335 337 338 340 310 144 186 167 150 148 142 155 97 99 131 174 137 133 180 190 202 217 208 207 240 174 168 173 165 224 294 279 257 234 224 226 226 235 257 232
337 336 336 336 334 338 335 337 339 340 341 333 119 111 41 130 276 155 149 140 111 51 143 116 152 175 205 214 210 249 233 260 186 193 185 169 212 221 251 255 201 219 221 216 224 232 238
337 337 335 338 333 341 342 338 340 348 338 337 89 143 180 170 221 166 123 154 178 152 174 180 215 230 211 217 214 222 228 273 194 207 180 179 250 234 254 260 252 240 222 216 217 234 238
341 338 338 336 336 344 345 339 342 353 341 312 78 193 169 151 150 170 142 175 178 186 178 201 227 206 223 221 218 207 224 165 235 147 162 208 272 270 274 270 255 251 241 221 217 223 241
341 339 338 340 337 344 343 342 342 350 353 335 338 269 78 164 154 160 192 179 192 175 193 212 209 219 227 234 235 257 192 276 228 215 217 225 249 270 282 313 293 269 246 226 225 207 208
341 338 340 339 340 343 342 343 343 347 353 316 284 296 156 158 173 189 162 195 204 195 211 235 219 205 210 318 184 242 233 246 258 258 221 215 208 230 285 308 327 285 333 270 214 216 209
335 338 338 343 341 343 342 340 342 345 346 332 277 298 32 125 180 164 158 186 207 206 210 237 207 194 204 338 275 245 222 255 246 230 202 209 195 281 292 315 278 308 158 113 177 238 207
335 333 336 338 338 341 343 338 340 341 348 342 294 258 284 127 197 147 183 175 170 215 174 204 216 139 163 252 255 233 207 218 275 269 260 199 219 238 330 313 339 299 353 193 200 12 179
332 330 334 333 340 335 341 337 337 340 349 345 271 274 269 97 256 119 150 169 145 116 184 149 214 216 181 178 230 199 249 173 258 271 151 181 208 226 255 270 289 281 311 165 43 268 353
334 327 330 332 330 335 340 336 337 339 349 353 280 288 312 42 298 332 152 130 112 148 167 172 178 215 170 159 198 235 193 208 224 233 186 192 186 202 124 272 310 352 333 73 260 297 300
335 328 328 331 330 334 339 333 334 335 349 356 309 342 287 355 293 328 287 193 171 158 161 184 256 278 197 161 192 246 230 137 206 269 12 253 186 202 177 218 249 260 266 313 272 290 308